DW9924 Weather Reports


Display with metric or nautical units.
time (UTC)temp
F
wind
direction
speed
MPH
gust
MPH
rain 1hr
in
rain 24hr
in
rain mn
in
humidity
%
barometer
mb
20260507211906 58 34 2.0 3.0 0.00 0.02 0.02 88 1014.5
20260507211405 58 24 1.0 2.0 0.00 0.02 0.02 88 1014.6
20260507210906 58 19 2.0 3.0 0.00 0.02 0.02 87 1014.6
20260507210407 58 27 1.0 3.0 0.00 0.02 0.02 87 1014.6
20260507204405 58 11 1.0 3.0 0.00 0.02 0.02 87 1014.6
20260507203906 58 15 2.0 3.0 0.00 0.02 0.02 87 1014.6
20260507203405 58 21 1.0 3.0 0.00 0.02 0.02 87 1014.6
20260507201905 58 28 1.0 3.0 0.00 0.02 0.02 86 1014.5
20260507201405 58 18 1.0 2.0 0.00 0.02 0.02 86 1014.5
20260507200907 58 24 1.0 3.0 0.00 0.02 0.02 85 1014.6
20260507200405 58 28 2.0 3.0 0.00 0.02 0.02 85 1014.3
20260507194909 59 21 1.0 3.0 0.00 0.02 0.02 84 1014.2
20260507194405 59 28 1.0 3.0 0.00 0.02 0.02 84 1014.2
20260507193408 60 16 1.0 3.0 0.00 0.02 0.02 83 1014.2
20260507191908 61 23 1.0 2.0 0.00 0.02 0.02 82 1014.2
20260507191409 61 39 1.0 3.0 0.00 0.02 0.02 81 1014.2
20260507190905 61 5 1.0 2.0 0.00 0.02 0.02 81 1014.2
20260507190405 62 4 0.0 2.0 0.00 0.02 0.02 80 1014.1
20260507184917 62 15 1.0 2.0 0.00 0.02 0.02 79 1014.1
20260507184405 63 145 0.0 2.0 0.00 0.02 0.02 79 1014.2
20260507183912 63 145 0.0 1.0 0.00 0.02 0.02 79 1014.2
20260507183405 63 145 1.0 2.0 0.00 0.02 0.02 78 1014.2
20260507181905 63 102 0.0 1.0 0.00 0.02 0.02 77 1014.3
20260507181420 64 102 0.0 0.0 0.00 0.02 0.02 77 1014.2
20260507180921 64 102 0.0 0.0 0.00 0.02 0.02 77 1014.0
20260507180405 64 101 1.0 2.0 0.00 0.02 0.02 77 1014.2
20260507174905 64 180 0.0 1.0 0.00 0.02 0.02 76 1014.2
20260507174406 64 180 1.0 2.0 0.00 0.02 0.02 76 1014.2
20260507173412 65 225 0.0 3.0 0.00 0.02 0.02 76 1014.2
20260507170916 65 230 1.0 3.0 0.00 0.02 0.02 76 1014.3
20260507164906 65 241 1.0 3.0 0.00 0.02 0.02 76 1014.0
20260507164405 65 202 2.0 5.0 0.00 0.02 0.02 75 1014.1
20260507163905 66 161 1.0 3.0 0.00 0.02 0.02 76 1014.1
20260507161408 66 207 1.0 3.0 0.00 0.02 0.02 76 1013.9
20260507160907 66 154 2.0 5.0 0.00 0.02 0.02 77 1014.0
20260507160405 65 218 1.0 7.0 0.00 0.02 0.02 77 1014.0
20260507154905 66 157 2.0 6.0 0.01 0.02 0.02 78 1014.1
20260507154407 66 164 2.0 5.0 0.02 0.02 0.02 78 1014.2
20260507153904 66 149 1.0 3.0 0.02 0.02 0.02 78 1014.3
20260507153405 66 190 2.0 5.0 0.02 0.02 0.02 79 1014.3
20260507151905 66 157 1.0 5.0 0.02 0.02 0.02 82 1014.3
20260507151405 65 123 0.0 3.0 0.02 0.02 0.02 84 1014.3
20260507150905 64 187 2.0 5.0 0.02 0.02 0.02 84 1014.4
20260507143904 65 167 2.0 7.0 0.00 0.00 0.00 78 1014.4
20260507143406 66 175 3.0 7.0 0.00 0.00 0.00 77 1014.4
20260507141905 68 164 2.0 6.0 0.00 0.00 0.00 74 1014.5
20260507141405 68 175 2.0 5.0 0.00 0.00 0.00 76 1014.4
20260507140906 67 160 2.0 6.0 0.00 0.00 0.00 75 1014.4
20260507140406 66 165 4.0 8.0 0.00 0.00 0.00 77 1014.6
20260507134404 64 176 5.0 9.0 0.00 0.00 0.00 79 1014.5
20260507133904 64 183 3.0 7.0 0.00 0.00 0.00 79 1014.5
20260507133404 64 157 3.0 7.0 0.00 0.00 0.00 81 1014.6
20260507130904 63 158 2.0 6.0 0.00 0.00 0.00 81 1014.6
20260507130404 63 146 3.0 10.0 0.00 0.00 0.00 80 1014.6
20260507124908 63 147 1.0 3.0 0.00 0.00 0.00 80 1014.6
20260507124408 63 150 1.0 3.0 0.00 0.00 0.00 80 1014.6
20260507123404 63 165 3.0 9.0 0.00 0.00 0.00 79 1014.4
20260507120905 65 151 5.0 9.0 0.00 0.00 0.00 76 1014.2
20260507120404 65 154 4.0 10.0 0.00 0.00 0.00 76 1014.3
20260507114905 68 154 4.0 6.0 0.00 0.00 0.00 71 1014.3
20260507114405 67 155 3.0 8.0 0.00 0.00 0.00 72 1014.3
20260507113404 66 184 5.0 9.0 0.00 0.00 0.00 73 1014.5
20260507111905 64 162 2.0 6.0 0.00 0.00 0.00 75 1014.5
20260507111405 65 129 3.0 9.0 0.00 0.00 0.00 75 1014.5
20260507110406 66 167 2.0 8.0 0.00 0.00 0.00 74 1014.5
20260507104905 65 171 3.0 8.0 0.00 0.00 0.00 76 1014.4
20260507104409 64 137 5.0 10.0 0.00 0.00 0.00 78 1014.4
20260507103909 63 144 4.0 9.0 0.00 0.00 0.00 78 1014.4
20260507101904 63 136 2.0 6.0 0.00 0.00 0.00 79 1014.6
20260507101404 63 149 1.0 5.0 0.00 0.00 0.00 78 1014.6
20260507100905 63 141 3.0 7.0 0.00 0.00 0.00 78 1014.6
20260507100405 63 167 3.0 8.0 0.00 0.00 0.00 78 1014.5
20260507094904 64 108 3.0 10.0 0.00 0.00 0.00 77 1014.6
20260507093910 64 128 4.0 12.0 0.00 0.00 0.00 77 1014.5
20260507093404 64 152 3.0 10.0 0.00 0.00 0.00 79 1014.5
20260507091407 64 164 5.0 12.0 0.00 0.00 0.00 75 1014.4
20260507090407 64 151 3.0 12.0 0.00 0.00 0.00 77 1014.4
20260507084907 63 167 3.0 8.0 0.00 0.00 0.00 78 1014.3
20260507084406 63 118 3.0 8.0 0.00 0.00 0.00 77 1014.2
20260507081908 64 156 3.0 7.0 0.00 0.00 0.00 76 1014.0
20260507080909 63 144 3.0 7.0 0.00 0.00 0.00 77 1014.1
20260507080406 63 156 2.0 8.0 0.00 0.00 0.00 77 1014.1
20260507074407 61 128 3.0 9.0 0.00 0.00 0.00 78 1013.8
20260507073906 61 114 2.0 7.0 0.00 0.00 0.00 77 1013.9
20260507073406 61 123 2.0 7.0 0.00 0.00 0.00 77 1013.9
20260507071907 61 86 2.0 6.0 0.00 0.00 0.00 76 1013.7
20260507071406 61 94 1.0 6.0 0.00 0.00 0.00 76 1013.6
20260507070907 62 120 1.0 6.0 0.00 0.00 0.00 76 1013.7
20260507070409 62 127 2.0 9.0 0.00 0.00 0.00 76 1013.7
20260507064914 61 80 1.0 3.0 0.00 0.00 0.00 78 1013.6
20260507064406 61 119 2.0 3.0 0.00 0.00 0.00 78 1013.4
20260507063906 61 80 2.0 5.0 0.00 0.00 0.00 79 1013.5
20260507061910 60 108 1.0 3.0 0.00 0.07 0.00 79 1013.3
20260507061406 60 100 2.0 6.0 0.00 0.07 0.00 79 1013.2
20260507060907 59 107 2.0 6.0 0.00 0.07 0.00 79 1013.1
20260507060406 59 110 2.0 3.0 0.00 0.07 0.00 79 1013.2
20260507054907 59 113 1.0 3.0 0.00 0.07 0.00 80 1013.1
20260507054407 59 124 2.0 5.0 0.00 0.07 0.00 80 1013.2
20260507053907 59 100 1.0 3.0 0.00 0.07 0.00 80 1013.1
20260507051907 59 107 3.0 6.0 0.00 0.07 0.00 80 1012.7
20260507051407 59 114 1.0 6.0 0.00 0.07 0.00 80 1012.6
20260507050906 59 129 1.0 3.0 0.00 0.07 0.00 80 1012.5
20260507050406 59 106 1.0 6.0 0.00 0.07 0.00 79 1012.5
20260507044910 59 66 2.0 7.0 0.00 0.07 0.00 79 1012.2
20260507044406 59 53 1.0 3.0 0.00 0.07 0.00 79 1012.3
20260507043906 59 103 1.0 3.0 0.00 0.07 0.00 80 1012.3
20260507043407 59 148 0.0 3.0 0.00 0.07 0.00 79 1012.3
20260507041907 59 123 1.0 3.0 0.00 0.08 0.00 79 1012.2
20260507041406 59 165 2.0 5.0 0.00 0.08 0.00 79 1012.2
20260507040906 59 113 0.0 2.0 0.00 0.08 0.00 79 1012.1
20260507040407 59 94 1.0 7.0 0.00 0.08 0.00 79 1012.0
20260507034906 59 99 2.0 8.0 0.00 0.09 0.00 79 1012.2
20260507034407 59 119 2.0 6.0 0.00 0.09 0.00 79 1012.1
20260507033407 59 68 1.0 6.0 0.00 0.09 0.00 80 1012.1
20260507031906 59 99 2.0 3.0 0.00 0.09 0.00 80 1012.1
20260507031406 59 110 2.0 7.0 0.00 0.09 0.00 80 1012.1
20260507030908 59 135 1.0 5.0 0.00 0.09 0.00 79 1012.1
20260507030408 59 108 3.0 6.0 0.00 0.09 0.00 79 1012.0
20260507024906 59 106 2.0 6.0 0.00 0.10 0.00 79 1012.1
20260507024406 59 100 1.0 3.0 0.00 0.11 0.00 79 1012.1
20260507023906 59 117 2.0 6.0 0.00 0.17 0.00 79 1012.1
20260507023406 59 109 2.0 6.0 0.00 0.25 0.00 79 1012.0
20260507021906 60 96 1.0 3.0 0.00 0.46 0.00 78 1012.2
20260507021406 60 95 3.0 8.0 0.00 0.59 0.00 78 1012.0
20260507020906 60 154 2.0 7.0 0.00 0.73 0.00 78 1012.1
20260507020406 60 100 2.0 7.0 0.00 0.93 0.00 78 1012.0
20260507014405 60 108 1.0 3.0 0.00 1.04 0.00 78 1012.1
20260507013906 60 113 2.0 3.0 0.00 1.05 0.00 78 1012.0
20260507013406 60 104 2.0 6.0 0.00 1.07 0.00 78 1012.1
20260507011906 60 142 1.0 3.0 0.00 1.16 0.00 78 1012.2
20260507011407 60 116 2.0 3.0 0.00 1.17 0.00 78 1012.1
20260507004906 60 77 1.0 3.0 0.00 1.23 0.00 77 1012.3
20260507004407 60 93 1.0 3.0 0.00 1.24 0.00 77 1012.3
20260507003408 60 118 1.0 5.0 0.00 1.24 0.00 77 1012.3
20260507001906 60 140 2.0 6.0 0.00 1.24 0.00 77 1012.2
20260507001406 60 138 2.0 5.0 0.00 1.24 0.00 77 1012.3
20260507000906 61 128 2.0 7.0 0.00 1.24 0.00 77 1012.3
20260507000406 61 119 1.0 8.0 0.00 1.24 0.00 77 1012.3
20260506234408 61 141 4.0 8.0 0.00 1.24 0.00 76 1012.4
20260506233406 60 149 2.0 5.0 0.00 1.24 0.00 76 1012.4
20260506231913 60 109 1.0 3.0 0.00 1.24 0.00 76 1012.5
20260506231407 60 104 2.0 3.0 0.00 1.24 0.00 76 1012.4
20260506230906 60 113 2.0 5.0 0.00 1.24 0.00 76 1012.4
20260506230409 60 130 2.0 7.0 0.00 1.24 0.00 76 1012.4
20260506224405 60 115 1.0 7.0 0.00 1.24 0.00 76 1012.4
20260506223907 60 129 2.0 6.0 0.00 1.24 0.00 76 1012.4
20260506223408 60 142 2.0 7.0 0.00 1.24 0.00 76 1012.4
20260506221911 60 137 1.0 3.0 0.00 1.24 0.00 76 1012.4
20260506221427 60 119 2.0 6.0 0.00 1.24 0.00 76 1012.3
20260506220906 60 122 1.0 3.0 0.00 1.24 0.00 76 1012.4
20260506220405 60 104 2.0 5.0 0.00 1.24 0.00 76 1012.4
20260506214909 60 134 2.0 5.0 0.00 1.24 1.24 77 1012.4
20260506213905 60 144 2.0 3.0 0.00 1.24 1.24 78 1012.4